This is the latest recevied weather packets stored in our database for station/object AD8AK. If no packets are shown the sender has not sent any weather packets the latest 10 day(s).
| Time | Temp. | Humidity | Pressure | Rain* | Wind** | Luminosity | Snow |
|---|---|---|---|---|---|---|---|
| 1777662998 | 10° C | 65% | 1014.1 hPa | 0 mm | - | - | - |
| 1777662695 | 10° C | 65% | 1014 hPa | 0 mm | - | - | - |
| 1777662392 | 10° C | 66% | 1014.2 hPa | 0 mm | - | - | - |
| 1777662092 | 10° C | 70% | 1014.1 hPa | 0 mm | - | - | - |
| 1777645803 | 5.56° C | 94% | 1012.2 hPa | 1.27 mm | - | - | - |
| 1777645501 | 5.56° C | 94% | 1012.2 hPa | 1.27 mm | - | - | - |
| 1777645196 | 5° C | 94% | 1012.3 hPa | 0 mm | - | - | - |
| 1777644892 | 5° C | 94% | 1012.1 hPa | 4.83 mm | - | - | - |
| 1777644590 | 5.56° C | 94% | 1012.1 hPa | 3.05 mm | - | - | - |
| 1777644286 | 5° C | 94% | 1012.3 hPa | 3.05 mm | - | - | - |
| 1777643982 | 5° C | 94% | 1012.3 hPa | 6.1 mm | - | - | - |
| 1777643679 | 5° C | 94% | 1012.2 hPa | 4.32 mm | - | - | - |
| 1777643377 | 5° C | 94% | 1012.3 hPa | 3.05 mm | - | - | - |
| 1777643073 | 5° C | 94% | 1012.1 hPa | 1.78 mm | - | - | - |
| 1777642770 | 5° C | 94% | 1012.1 hPa | 3.05 mm | - | - | - |
| 1777642467 | 5.56° C | 94% | 1012.1 hPa | 1.27 mm | - | - | - |
| 1777642163 | 5.56° C | 94% | 1012 hPa | 1.78 mm | - | - | - |
| 1777641861 | 5.56° C | 94% | 1012 hPa | 3.05 mm | - | - | - |
| 1777641555 | 5.56° C | 94% | 1012.2 hPa | 3.05 mm | - | - | - |
| 1777641255 | 5.56° C | 94% | 1012.2 hPa | 1.78 mm | - | - | - |
| 1777640952 | 5.56° C | 94% | 1012.2 hPa | 0 mm | - | - | - |
| 1777640649 | 5.56° C | 94% | 1012.2 hPa | 0 mm | - | - | - |
| 1777640345 | 5.56° C | 94% | 1012.2 hPa | 0 mm | - | - | - |
| 1777640041 | 5.56° C | 94% | 1012.2 hPa | 0 mm | - | - | - |
| 1777639738 | 5.56° C | 94% | 1012 hPa | 0 mm | - | - | - |
* Rain latest hour (hover to see other rain measurements)
** Current wind speed in m/s (hover to see current wind gust speed)